Terminal Aerodrome Forecast
Issued by NWS

Home | Current Version | Previous Version | Text Only | Print | Product List | Glossary On
Versions: 1 2 3 4 5 6 7 8 9 10 11 12 13 14 15 16 17 18 19 20 21 22 23 24 25 26 27
000
FTUS46 KMTR 272300
TAFSFO
TAF
KSFO 272337Z 2800/2906 30020KT P6SM FEW010
     FM280400 29008KT P6SM SKC
      TEMPO 2811/2815 BKN015
     FM281600 28006KT P6SM FEW010
     FM282000 29020KT P6SM SKC
     FM290300 29010KT P6SM SKC=

USA.gov is the U.S. government's official web portal to all federal, state and local government web resources and services.